Location: Alsip
(41.6689°N, 87.7387°W)
Time: 14:29:08
(UTC+00:00)

UNK - Pass Details

Date: 14 July 2020
Orbit: 667 x 685 km, 98.1° (Epoch: 04 August)

Event Time Altitude Azimuth Distance (km) Brightness Sun altitude
Exits shadow 08:06:27 43° 239° (WSW) 951 4.0 -20.0°
Maximum altitude 08:07:02 45° 261° (W) 918 4.1 -19.9°
Drops below altitude 10° 08:11:29 10° 334° (NNW) 2,122 6.7 -19.5°
Sets 08:13:50 0° 341° (NNW) 3,044 7.7 -19.3°
